Year,Month,Day,Hour,Minute,Value (Times are PST for temperature in C)
2015,01,18,00,00,7.20
2015,01,18,00,01,7.20
2015,01,18,00,02,7.20
2015,01,18,00,03,7.20
2015,01,18,00,04,7.20
2015,01,18,00,05,7.10
2015,01,18,00,06,7.10
2015,01,18,00,07,7.10
2015,01,18,00,08,7.10
2015,01,18,00,09,7.10
2015,01,18,00,10,7.10
2015,01,18,00,11,7.10
2015,01,18,00,12,7.10
2015,01,18,00,13,7.10
2015,01,18,00,14,7.10
2015,01,18,00,15,7.10
2015,01,18,00,16,7.10
2015,01,18,00,17,7.10
2015,01,18,00,18,7.10
2015,01,18,00,19,7.10
2015,01,18,00,20,7.10
2015,01,18,00,21,7.20
2015,01,18,00,22,7.20
2015,01,18,00,23,7.20
2015,01,18,00,24,7.20
2015,01,18,00,25,7.20
2015,01,18,00,26,7.20
2015,01,18,00,27,7.20
2015,01,18,00,28,7.20
2015,01,18,00,29,7.20
2015,01,18,00,30,7.20
2015,01,18,00,31,7.20
2015,01,18,00,32,7.20
2015,01,18,00,33,7.20
2015,01,18,00,34,7.30
2015,01,18,00,35,7.30
2015,01,18,00,36,7.30
2015,01,18,00,37,7.30
2015,01,18,00,38,7.30
2015,01,18,00,39,7.30
2015,01,18,00,40,7.30
2015,01,18,00,41,7.30
2015,01,18,00,42,7.30
2015,01,18,00,43,7.30
2015,01,18,00,44,7.30
2015,01,18,00,45,7.30
2015,01,18,00,46,7.30
2015,01,18,00,47,7.30
2015,01,18,00,48,7.30
2015,01,18,00,49,7.30
2015,01,18,00,50,7.30
2015,01,18,00,51,7.30
2015,01,18,00,52,7.30
2015,01,18,00,53,7.30
2015,01,18,00,54,7.30
2015,01,18,00,55,7.30
2015,01,18,00,56,7.30
2015,01,18,00,57,7.30
2015,01,18,00,58,7.30
2015,01,18,00,59,7.30
2015,01,18,01,00,7.30
2015,01,18,01,01,7.30
2015,01,18,01,02,7.30
2015,01,18,01,03,7.30
2015,01,18,01,04,7.30
2015,01,18,01,05,7.30
2015,01,18,01,06,7.40
2015,01,18,01,07,7.40
2015,01,18,01,08,7.40
2015,01,18,01,09,7.40
2015,01,18,01,10,7.40
2015,01,18,01,11,7.40
2015,01,18,01,12,7.50
2015,01,18,01,13,7.60
2015,01,18,01,14,7.60
2015,01,18,01,15,7.70
2015,01,18,01,16,7.70
2015,01,18,01,17,7.80
2015,01,18,01,18,7.80
2015,01,18,01,19,7.90
2015,01,18,01,20,7.90
2015,01,18,01,21,8.00
2015,01,18,01,22,8.00
2015,01,18,01,23,8.10
2015,01,18,01,24,8.20
2015,01,18,01,25,8.30
2015,01,18,01,26,8.40
2015,01,18,01,27,8.50
2015,01,18,01,28,8.60
2015,01,18,01,29,8.80
2015,01,18,01,30,8.90
2015,01,18,01,31,9.00
2015,01,18,01,32,9.10
2015,01,18,01,33,9.20
2015,01,18,01,34,9.30
2015,01,18,01,35,9.30
2015,01,18,01,36,9.30
2015,01,18,01,37,9.40
2015,01,18,01,38,9.40
2015,01,18,01,39,9.40
2015,01,18,01,40,9.40
2015,01,18,01,41,9.40
2015,01,18,01,42,9.40
2015,01,18,01,43,9.40
2015,01,18,01,44,9.40
2015,01,18,01,45,9.40
2015,01,18,01,46,9.40
2015,01,18,01,47,9.40
2015,01,18,01,48,9.40
2015,01,18,01,49,9.50
2015,01,18,01,50,9.40
2015,01,18,01,51,9.40
2015,01,18,01,52,9.50
2015,01,18,01,53,9.50
2015,01,18,01,54,9.60
2015,01,18,01,55,9.60
2015,01,18,01,56,9.60
2015,01,18,01,57,9.70
2015,01,18,01,58,9.70
2015,01,18,01,59,9.70
2015,01,18,02,00,9.80
2015,01,18,02,01,9.80
2015,01,18,02,02,9.80
2015,01,18,02,03,9.90
2015,01,18,02,04,9.90
2015,01,18,02,05,9.90
2015,01,18,02,06,10.00
2015,01,18,02,07,10.10
2015,01,18,02,08,10.10
2015,01,18,02,09,10.20
2015,01,18,02,10,10.20
2015,01,18,02,11,10.30
2015,01,18,02,12,10.30
2015,01,18,02,13,10.30
2015,01,18,02,14,10.40
2015,01,18,02,15,10.40
2015,01,18,02,16,10.50
2015,01,18,02,17,10.50
2015,01,18,02,18,10.60
2015,01,18,02,19,10.60
2015,01,18,02,20,10.60
2015,01,18,02,21,10.60
2015,01,18,02,22,10.60
2015,01,18,02,23,10.60
2015,01,18,02,24,10.60
2015,01,18,02,25,10.60
2015,01,18,02,26,10.60
2015,01,18,02,27,10.60
2015,01,18,02,28,10.60
2015,01,18,02,29,10.60
2015,01,18,02,30,10.60
2015,01,18,02,31,10.60
2015,01,18,02,32,10.60
2015,01,18,02,33,10.60
2015,01,18,02,34,10.60
2015,01,18,02,35,10.60
2015,01,18,02,36,10.60
2015,01,18,02,37,10.60
2015,01,18,02,38,10.60
2015,01,18,02,39,10.70
2015,01,18,02,40,10.70
2015,01,18,02,41,10.80
2015,01,18,02,42,10.80
2015,01,18,02,43,10.80
2015,01,18,02,44,10.80
2015,01,18,02,45,10.80
2015,01,18,02,46,10.80
2015,01,18,02,47,10.80
2015,01,18,02,48,10.80
2015,01,18,02,49,10.80
2015,01,18,02,50,10.80
2015,01,18,02,51,10.80
2015,01,18,02,52,10.80
2015,01,18,02,53,10.80
2015,01,18,02,54,10.80
2015,01,18,02,55,10.80
2015,01,18,02,56,10.80
2015,01,18,02,57,10.80
2015,01,18,02,58,10.80
2015,01,18,02,59,10.80
2015,01,18,03,00,10.80
2015,01,18,03,01,10.80
2015,01,18,03,02,10.80
2015,01,18,03,03,10.80
2015,01,18,03,04,10.80
2015,01,18,03,05,10.70
2015,01,18,03,06,10.80
2015,01,18,03,07,10.80
2015,01,18,03,08,10.80
2015,01,18,03,09,10.80
2015,01,18,03,10,10.80
2015,01,18,03,11,10.80
2015,01,18,03,12,10.80
2015,01,18,03,13,10.80
2015,01,18,03,14,10.80
2015,01,18,03,15,10.80
2015,01,18,03,16,10.80
2015,01,18,03,17,10.80
2015,01,18,03,18,10.70
2015,01,18,03,19,10.70
2015,01,18,03,20,10.70
2015,01,18,03,21,10.70
2015,01,18,03,22,10.70
2015,01,18,03,23,10.70
2015,01,18,03,24,10.70
2015,01,18,03,25,10.70
2015,01,18,03,26,10.60
2015,01,18,03,27,10.60
2015,01,18,03,28,10.60
2015,01,18,03,29,10.60
2015,01,18,03,30,10.50
2015,01,18,03,31,10.50
2015,01,18,03,32,10.50
2015,01,18,03,33,10.50
2015,01,18,03,34,10.50
2015,01,18,03,35,10.50
2015,01,18,03,36,10.50
2015,01,18,03,37,10.40
2015,01,18,03,38,10.40
2015,01,18,03,39,10.40
2015,01,18,03,40,10.40
2015,01,18,03,41,10.40
2015,01,18,03,42,10.40
2015,01,18,03,43,10.40
2015,01,18,03,44,10.40
2015,01,18,03,45,10.40
2015,01,18,03,46,10.40
2015,01,18,03,47,10.40
2015,01,18,03,48,10.40
2015,01,18,03,49,10.40
2015,01,18,03,50,10.30
2015,01,18,03,51,10.30
2015,01,18,03,52,10.30
2015,01,18,03,53,10.30
2015,01,18,03,54,10.30
2015,01,18,03,55,10.30
2015,01,18,03,56,10.30
2015,01,18,03,57,10.30
2015,01,18,03,58,10.30
2015,01,18,03,59,10.30
2015,01,18,04,00,10.30
2015,01,18,04,01,10.30
2015,01,18,04,02,10.30
2015,01,18,04,03,10.30
2015,01,18,04,04,10.30
2015,01,18,04,05,10.30
2015,01,18,04,06,10.30
2015,01,18,04,07,10.20
2015,01,18,04,08,10.20
2015,01,18,04,09,10.20
2015,01,18,04,10,10.20
2015,01,18,04,11,10.10
2015,01,18,04,12,10.10
2015,01,18,04,13,10.10
2015,01,18,04,14,10.10
2015,01,18,04,15,10.00
2015,01,18,04,16,10.00
2015,01,18,04,17,10.00
2015,01,18,04,18,10.00
2015,01,18,04,19,9.90
2015,01,18,04,20,9.90
2015,01,18,04,21,9.90
2015,01,18,04,22,9.90
2015,01,18,04,23,9.90
2015,01,18,04,24,9.90
2015,01,18,04,25,9.80
2015,01,18,04,26,9.80
2015,01,18,04,27,9.80
2015,01,18,04,28,9.80
2015,01,18,04,29,9.80
2015,01,18,04,30,9.70
2015,01,18,04,31,9.70
2015,01,18,04,32,9.70
2015,01,18,04,33,9.70
2015,01,18,04,34,9.70
2015,01,18,04,35,9.60
2015,01,18,04,36,9.60
2015,01,18,04,37,9.60
2015,01,18,04,38,9.60
2015,01,18,04,39,9.60
2015,01,18,04,40,9.60
2015,01,18,04,41,9.60
2015,01,18,04,42,9.60
2015,01,18,04,43,9.60
2015,01,18,04,44,9.60
2015,01,18,04,45,9.60
2015,01,18,04,46,9.60
2015,01,18,04,47,9.60
2015,01,18,04,48,9.60
2015,01,18,04,49,9.60
2015,01,18,04,50,9.60
2015,01,18,04,51,9.60
2015,01,18,04,52,9.60
2015,01,18,04,53,9.60
2015,01,18,04,54,9.60
2015,01,18,04,55,9.60
2015,01,18,04,56,9.60
2015,01,18,04,57,9.60
2015,01,18,04,58,9.60
2015,01,18,04,59,9.60
2015,01,18,05,00,9.60
2015,01,18,05,01,9.60
2015,01,18,05,02,9.60
2015,01,18,05,03,9.60
2015,01,18,05,04,9.60
2015,01,18,05,05,9.50
2015,01,18,05,06,9.50
2015,01,18,05,07,9.50
2015,01,18,05,08,9.60
2015,01,18,05,09,9.60
2015,01,18,05,10,9.60
2015,01,18,05,11,9.60
2015,01,18,05,12,9.60
2015,01,18,05,13,9.60
2015,01,18,05,14,9.60
2015,01,18,05,15,9.60
2015,01,18,05,16,9.60
2015,01,18,05,17,9.60
2015,01,18,05,18,9.60
2015,01,18,05,19,9.60
2015,01,18,05,20,9.60
2015,01,18,05,21,9.70
2015,01,18,05,22,9.70
2015,01,18,05,23,9.70
2015,01,18,05,24,9.70
2015,01,18,05,25,9.80
2015,01,18,05,26,9.80
2015,01,18,05,27,9.80
2015,01,18,05,28,9.80
2015,01,18,05,29,9.80
2015,01,18,05,30,9.80
2015,01,18,05,31,9.80
2015,01,18,05,32,9.80
2015,01,18,05,33,9.80
2015,01,18,05,34,9.80
2015,01,18,05,35,9.90
2015,01,18,05,36,9.90
2015,01,18,05,37,9.90
2015,01,18,05,38,10.00
2015,01,18,05,39,10.00
2015,01,18,05,40,10.00
2015,01,18,05,41,10.10
2015,01,18,05,42,10.10
2015,01,18,05,43,10.10
2015,01,18,05,44,10.10
2015,01,18,05,45,10.10
2015,01,18,05,46,10.10
2015,01,18,05,47,10.10
2015,01,18,05,48,10.10
2015,01,18,05,49,10.10
2015,01,18,05,50,10.10
2015,01,18,05,51,10.10
2015,01,18,05,52,10.00
2015,01,18,05,53,10.00
2015,01,18,05,54,9.90
2015,01,18,05,55,9.90
2015,01,18,05,56,9.90
2015,01,18,05,57,9.90
2015,01,18,05,58,9.80
2015,01,18,05,59,9.80
2015,01,18,06,00,9.80
2015,01,18,06,01,9.80
2015,01,18,06,02,9.80
2015,01,18,06,03,9.80
2015,01,18,06,04,9.70
2015,01,18,06,05,9.70
2015,01,18,06,06,9.70
2015,01,18,06,07,9.70
2015,01,18,06,08,9.70
2015,01,18,06,09,9.70
2015,01,18,06,10,9.60
2015,01,18,06,11,9.60
2015,01,18,06,12,9.60
2015,01,18,06,13,9.60
2015,01,18,06,14,9.60
2015,01,18,06,15,9.50
2015,01,18,06,16,9.50
2015,01,18,06,17,9.50
2015,01,18,06,18,9.50
2015,01,18,06,19,9.50
2015,01,18,06,20,9.50
2015,01,18,06,21,9.50
2015,01,18,06,22,9.50
2015,01,18,06,23,9.50
2015,01,18,06,24,9.50
2015,01,18,06,25,9.50
2015,01,18,06,26,9.40
2015,01,18,06,27,9.40
2015,01,18,06,28,9.40
2015,01,18,06,29,9.40
2015,01,18,06,30,9.40
2015,01,18,06,31,9.40
2015,01,18,06,32,9.40
2015,01,18,06,33,9.40
2015,01,18,06,34,9.40
2015,01,18,06,35,9.40
2015,01,18,06,36,9.30
2015,01,18,06,37,9.30
2015,01,18,06,38,9.30
2015,01,18,06,39,9.30
2015,01,18,06,40,9.30
2015,01,18,06,41,9.30
2015,01,18,06,42,9.30
2015,01,18,06,43,9.30
2015,01,18,06,44,9.30
2015,01,18,06,45,9.30
2015,01,18,06,46,9.30
2015,01,18,06,47,9.20
2015,01,18,06,48,9.20
2015,01,18,06,49,9.20
2015,01,18,06,50,9.20
2015,01,18,06,51,9.20
2015,01,18,06,52,9.20
2015,01,18,06,53,9.20
2015,01,18,06,54,9.20
2015,01,18,06,55,9.20
2015,01,18,06,56,9.20
2015,01,18,06,57,9.20
2015,01,18,06,58,9.20
2015,01,18,06,59,9.20
2015,01,18,07,00,9.20
2015,01,18,07,01,9.20
2015,01,18,07,02,9.20
2015,01,18,07,03,9.20
2015,01,18,07,04,9.20
2015,01,18,07,05,9.20
2015,01,18,07,06,9.20
2015,01,18,07,07,9.20
2015,01,18,07,08,9.20
2015,01,18,07,09,9.20
2015,01,18,07,10,9.20
2015,01,18,07,11,9.20
2015,01,18,07,12,9.20
2015,01,18,07,13,9.20
2015,01,18,07,14,9.20
2015,01,18,07,15,9.20
2015,01,18,07,16,9.20
2015,01,18,07,17,9.20
2015,01,18,07,18,9.20
2015,01,18,07,19,9.20
2015,01,18,07,20,9.20
2015,01,18,07,21,9.20
2015,01,18,07,22,9.20
2015,01,18,07,23,9.20
2015,01,18,07,24,9.20
2015,01,18,07,25,9.20
2015,01,18,07,26,9.20
2015,01,18,07,27,9.20
2015,01,18,07,28,9.20
2015,01,18,07,29,9.20
2015,01,18,07,30,9.20
2015,01,18,07,31,9.10
2015,01,18,07,32,9.10
2015,01,18,07,33,9.10
2015,01,18,07,34,9.10
2015,01,18,07,35,9.10
2015,01,18,07,36,9.10
2015,01,18,07,37,9.10
2015,01,18,07,38,9.10
2015,01,18,07,39,9.10
2015,01,18,07,40,9.10
2015,01,18,07,41,9.10
2015,01,18,07,42,9.10
2015,01,18,07,43,9.10
2015,01,18,07,44,9.10
2015,01,18,07,45,9.10
2015,01,18,07,46,9.10
2015,01,18,07,47,9.10
2015,01,18,07,48,9.10
2015,01,18,07,49,9.20
2015,01,18,07,50,9.20
2015,01,18,07,51,9.20
2015,01,18,07,52,9.30
2015,01,18,07,53,9.30
2015,01,18,07,54,9.30
2015,01,18,07,55,9.30
2015,01,18,07,56,9.30
2015,01,18,07,57,9.30
2015,01,18,07,58,9.30
2015,01,18,07,59,9.30
2015,01,18,08,00,9.30
2015,01,18,08,01,9.30
2015,01,18,08,02,9.30
2015,01,18,08,03,9.40
2015,01,18,08,04,9.40
2015,01,18,08,05,9.40
2015,01,18,08,06,9.40
2015,01,18,08,07,9.40
2015,01,18,08,08,9.40
2015,01,18,08,09,9.40
2015,01,18,08,10,9.40
2015,01,18,08,11,9.40
2015,01,18,10,43,8.20
2015,01,18,10,44,8.20
2015,01,18,10,45,8.20
2015,01,18,10,46,8.20
2015,01,18,10,47,8.20
2015,01,18,10,48,8.20
2015,01,18,10,49,8.20
2015,01,18,10,50,8.20
2015,01,18,10,51,8.20
2015,01,18,10,52,8.20
2015,01,18,10,53,8.20
2015,01,18,10,54,8.30
2015,01,18,10,55,8.30
2015,01,18,10,56,8.30
2015,01,18,10,57,8.30
2015,01,18,10,58,8.40
2015,01,18,10,59,8.40
2015,01,18,11,00,8.50
2015,01,18,11,01,8.50
2015,01,18,11,02,8.60
2015,01,18,11,03,8.60
2015,01,18,11,04,8.70
2015,01,18,11,05,8.80
2015,01,18,11,06,8.90
2015,01,18,11,07,8.90
2015,01,18,11,08,9.00
2015,01,18,11,09,9.00
2015,01,18,11,10,9.10
2015,01,18,11,11,9.10
2015,01,18,11,12,9.10
2015,01,18,11,13,9.10
2015,01,18,11,14,9.10
2015,01,18,11,15,9.10
2015,01,18,11,16,9.20
2015,01,18,11,17,9.20
2015,01,18,11,18,9.20
2015,01,18,11,19,9.20
2015,01,18,11,20,9.20
2015,01,18,11,21,9.20
2015,01,18,11,22,9.20
2015,01,18,11,23,9.20
2015,01,18,11,24,9.20
2015,01,18,11,25,9.20
2015,01,18,11,26,9.20
2015,01,18,11,27,9.20
2015,01,18,11,28,9.20
2015,01,18,11,29,9.20
2015,01,18,11,30,9.20
2015,01,18,11,31,9.20
2015,01,18,11,32,9.20
2015,01,18,11,33,9.20
2015,01,18,11,34,9.20
2015,01,18,11,35,9.20
2015,01,18,11,36,9.20
2015,01,18,11,37,9.20
2015,01,18,11,38,9.20
2015,01,18,11,39,9.20
2015,01,18,11,40,9.20
2015,01,18,11,41,9.20
2015,01,18,11,42,9.20
2015,01,18,11,43,9.20
2015,01,18,11,44,9.10
2015,01,18,11,45,9.10
2015,01,18,11,46,9.10
2015,01,18,11,47,9.10
2015,01,18,11,48,9.10
2015,01,18,11,49,9.10
2015,01,18,11,50,9.10
2015,01,18,11,51,9.10
2015,01,18,11,52,9.10
2015,01,18,11,53,9.10
2015,01,18,11,54,9.00
2015,01,18,11,55,9.00
2015,01,18,11,56,9.00
2015,01,18,11,57,9.00
2015,01,18,11,58,9.00
2015,01,18,11,59,9.00
2015,01,18,12,00,9.00
2015,01,18,12,01,9.00
2015,01,18,12,02,9.10
2015,01,18,12,03,9.10
2015,01,18,12,04,9.10
2015,01,18,12,05,9.10
2015,01,18,12,06,9.10
2015,01,18,12,07,9.10
2015,01,18,12,08,9.10
2015,01,18,12,09,9.20
2015,01,18,12,10,9.20
2015,01,18,12,11,9.20
2015,01,18,12,12,9.20
2015,01,18,12,13,9.20
2015,01,18,12,14,9.20
2015,01,18,12,15,9.20
2015,01,18,12,16,9.10
2015,01,18,12,17,9.10
2015,01,18,12,18,9.10
2015,01,18,12,19,9.10
2015,01,18,12,20,9.10
2015,01,18,12,21,9.10
2015,01,18,12,22,9.10
2015,01,18,12,23,9.10
2015,01,18,12,24,9.10
2015,01,18,12,25,9.10
2015,01,18,12,26,9.10
2015,01,18,12,27,9.10
2015,01,18,12,28,9.00
2015,01,18,12,29,9.00
2015,01,18,12,30,9.00
2015,01,18,12,31,9.00
2015,01,18,12,32,9.00
2015,01,18,12,33,9.00
2015,01,18,12,34,9.00
2015,01,18,12,35,9.00
2015,01,18,12,36,8.90
2015,01,18,12,37,8.90
2015,01,18,12,38,8.90
2015,01,18,12,39,8.90
2015,01,18,12,40,8.90
2015,01,18,12,41,9.00
2015,01,18,12,42,9.00
2015,01,18,12,43,9.00
2015,01,18,12,44,9.00
2015,01,18,12,45,9.00
2015,01,18,12,46,9.00
2015,01,18,12,47,9.10
2015,01,18,12,48,9.10
2015,01,18,12,49,9.10
2015,01,18,12,50,9.10
2015,01,18,12,51,9.20
2015,01,18,12,52,9.20
2015,01,18,12,53,9.20
2015,01,18,12,54,9.20
2015,01,18,12,55,9.30
2015,01,18,12,56,9.30
2015,01,18,12,57,9.30
2015,01,18,12,58,9.40
2015,01,18,12,59,9.40
2015,01,18,13,00,9.40
2015,01,18,13,01,9.50
2015,01,18,13,02,9.50
2015,01,18,13,03,9.50
2015,01,18,13,04,9.50
2015,01,18,13,05,9.50
2015,01,18,13,06,9.50
2015,01,18,13,07,9.50
2015,01,18,13,08,9.50
2015,01,18,13,09,9.50
2015,01,18,13,10,9.50
2015,01,18,13,11,9.50
2015,01,18,13,12,9.50
2015,01,18,13,13,9.50
2015,01,18,13,14,9.50
2015,01,18,13,15,9.50
2015,01,18,13,16,9.40
2015,01,18,13,17,9.40
2015,01,18,13,18,9.40
2015,01,18,13,19,9.40
2015,01,18,13,20,9.40
2015,01,18,13,21,9.40
2015,01,18,13,22,9.40
2015,01,18,13,23,9.40
2015,01,18,13,24,9.40
2015,01,18,13,25,9.30
2015,01,18,13,26,9.30
2015,01,18,13,27,9.30
2015,01,18,13,28,9.30
2015,01,18,13,29,9.30
2015,01,18,13,30,9.20
2015,01,18,13,31,9.20
2015,01,18,13,32,9.20
2015,01,18,13,33,9.20
2015,01,18,13,34,9.20
2015,01,18,13,35,9.20
2015,01,18,13,36,9.20
2015,01,18,13,37,9.20
2015,01,18,13,38,9.20
2015,01,18,13,39,9.20
2015,01,18,13,40,9.20
2015,01,18,13,41,9.10
2015,01,18,13,42,9.10
2015,01,18,13,43,9.10
2015,01,18,13,44,9.10
2015,01,18,13,45,9.10
2015,01,18,13,46,9.10
2015,01,18,13,47,9.10
2015,01,18,13,48,9.10
2015,01,18,13,49,9.00
2015,01,18,13,50,9.00
2015,01,18,13,51,9.00
2015,01,18,13,52,9.00
2015,01,18,13,53,9.00
2015,01,18,13,54,9.00
2015,01,18,13,55,8.90
2015,01,18,13,56,8.90
2015,01,18,13,57,8.90
2015,01,18,13,58,8.90
2015,01,18,13,59,8.90
2015,01,18,14,00,8.90
2015,01,18,14,01,8.90
2015,01,18,14,02,8.90
2015,01,18,14,03,8.90
2015,01,18,14,04,8.90
2015,01,18,14,05,8.90
2015,01,18,14,06,8.90
2015,01,18,14,07,8.90
2015,01,18,14,08,8.90
2015,01,18,14,09,8.90
2015,01,18,14,10,8.80
2015,01,18,14,11,8.80
2015,01,18,14,12,8.80
2015,01,18,14,13,8.90
2015,01,18,14,14,8.90
2015,01,18,14,15,8.90
2015,01,18,14,16,8.90
2015,01,18,14,17,8.90
2015,01,18,14,18,9.00
2015,01,18,14,19,9.00
2015,01,18,14,20,9.00
2015,01,18,14,21,9.00
2015,01,18,14,22,9.10
2015,01,18,14,23,9.10
2015,01,18,14,24,9.10
2015,01,18,14,25,9.10
2015,01,18,14,26,9.10
2015,01,18,14,27,9.10
2015,01,18,14,28,9.10
2015,01,18,14,29,9.10
2015,01,18,14,30,9.10
2015,01,18,14,31,9.10
2015,01,18,14,32,9.10
2015,01,18,14,33,9.10
2015,01,18,14,34,9.10
2015,01,18,14,35,9.10
2015,01,18,14,36,9.10
2015,01,18,14,37,9.10
2015,01,18,14,38,9.10
2015,01,18,14,39,9.10
2015,01,18,14,40,9.10
2015,01,18,14,41,9.10
2015,01,18,14,42,9.10
2015,01,18,14,43,9.00
2015,01,18,14,44,9.00
2015,01,18,14,45,9.00
2015,01,18,14,46,9.00
2015,01,18,14,47,9.00
2015,01,18,14,48,9.00
2015,01,18,14,49,8.90
2015,01,18,14,50,8.90
2015,01,18,14,51,8.90
2015,01,18,14,52,8.90
2015,01,18,14,53,9.00
2015,01,18,14,54,9.00
2015,01,18,14,55,9.00
2015,01,18,14,56,9.00
2015,01,18,14,57,9.00
2015,01,18,14,58,9.00
2015,01,18,14,59,9.00
2015,01,18,15,00,9.00
2015,01,18,15,01,9.00
2015,01,18,15,02,9.10
2015,01,18,15,03,9.10
2015,01,18,15,04,9.10
2015,01,18,15,05,9.10
2015,01,18,15,06,9.10
2015,01,18,15,07,9.10
2015,01,18,15,08,9.10
2015,01,18,15,09,9.20
2015,01,18,15,10,9.20
2015,01,18,15,11,9.20
2015,01,18,15,12,9.20
2015,01,18,15,13,9.20
2015,01,18,15,14,9.30
2015,01,18,15,15,9.30
2015,01,18,15,16,9.30
2015,01,18,15,17,9.40
2015,01,18,15,18,9.40
2015,01,18,15,19,9.50
2015,01,18,15,20,9.50
2015,01,18,15,21,9.60
2015,01,18,15,22,9.60
2015,01,18,15,23,9.60
2015,01,18,15,24,9.60
2015,01,18,15,25,9.60
2015,01,18,15,26,9.70
2015,01,18,15,27,9.70
2015,01,18,15,28,9.70
2015,01,18,15,29,9.70
2015,01,18,15,30,9.70
2015,01,18,15,31,9.70
2015,01,18,15,32,9.70
2015,01,18,15,33,9.70
2015,01,18,15,34,9.70
2015,01,18,15,35,9.70
2015,01,18,15,36,9.70
2015,01,18,15,37,9.70
2015,01,18,15,38,9.70
2015,01,18,15,39,9.70
2015,01,18,15,40,9.70
2015,01,18,15,41,9.70
2015,01,18,15,42,9.70
2015,01,18,15,43,9.70
2015,01,18,15,44,9.70
2015,01,18,15,45,9.70
2015,01,18,15,46,9.60
2015,01,18,15,47,9.60
2015,01,18,15,48,9.60
2015,01,18,15,49,9.60
2015,01,18,15,50,9.60
2015,01,18,15,51,9.60
2015,01,18,15,52,9.60
2015,01,18,15,53,9.60
2015,01,18,15,54,9.60
2015,01,18,15,55,9.60
2015,01,18,15,56,9.60
2015,01,18,15,57,9.60
2015,01,18,15,58,9.60
2015,01,18,15,59,9.60
2015,01,18,16,00,9.60
2015,01,18,16,01,9.60
2015,01,18,16,02,9.60
2015,01,18,16,03,9.60
2015,01,18,16,04,9.60
2015,01,18,16,05,9.60
2015,01,18,16,06,9.60
2015,01,18,16,07,9.60
2015,01,18,16,08,9.60
2015,01,18,16,09,9.60
2015,01,18,16,10,9.60
2015,01,18,16,11,9.60
2015,01,18,16,12,9.60
2015,01,18,16,13,9.60
2015,01,18,16,14,9.60
2015,01,18,16,15,9.60
2015,01,18,16,16,9.50
2015,01,18,16,17,9.50
2015,01,18,16,18,9.40
2015,01,18,16,19,9.40
2015,01,18,16,20,9.40
2015,01,18,16,21,9.40
2015,01,18,16,22,9.40
2015,01,18,16,23,9.40
2015,01,18,16,24,9.40
2015,01,18,16,25,9.40
2015,01,18,16,26,9.40
2015,01,18,16,27,9.30
2015,01,18,16,28,9.30
2015,01,18,16,29,9.30
2015,01,18,16,30,9.30
2015,01,18,16,31,9.30
2015,01,18,16,32,9.30
2015,01,18,16,33,9.30
2015,01,18,16,34,9.30
2015,01,18,16,35,9.30
2015,01,18,16,36,9.30
2015,01,18,16,37,9.30
2015,01,18,16,38,9.30
2015,01,18,16,39,9.30
2015,01,18,16,40,9.30
2015,01,18,16,41,9.30
2015,01,18,16,42,9.20
2015,01,18,16,43,9.20
2015,01,18,16,44,9.20
2015,01,18,16,45,9.20
2015,01,18,16,46,9.20
2015,01,18,16,47,9.20
2015,01,18,16,48,9.20
2015,01,18,16,49,9.10
2015,01,18,16,50,9.10
2015,01,18,16,51,9.10
2015,01,18,16,52,9.10
2015,01,18,16,53,9.10
2015,01,18,16,54,9.10
2015,01,18,16,55,9.10
2015,01,18,16,56,9.10
2015,01,18,16,57,9.10
2015,01,18,16,58,9.10
2015,01,18,16,59,9.10
2015,01,18,17,00,9.00
2015,01,18,17,01,9.10
2015,01,18,17,02,9.10
2015,01,18,17,03,9.10
2015,01,18,17,04,9.10
2015,01,18,17,05,9.10
2015,01,18,17,06,9.10
2015,01,18,17,07,9.10
2015,01,18,17,08,9.10
2015,01,18,17,09,9.10
2015,01,18,17,10,9.00
2015,01,18,17,11,9.10
2015,01,18,17,12,9.10
2015,01,18,17,13,9.10
2015,01,18,17,14,9.10
2015,01,18,17,15,9.10
2015,01,18,17,16,9.10
2015,01,18,17,17,9.10
2015,01,18,17,18,9.10
2015,01,18,17,19,9.10
2015,01,18,17,20,9.10
2015,01,18,17,21,9.00
2015,01,18,17,22,9.00
2015,01,18,17,23,9.00
2015,01,18,17,24,9.00
2015,01,18,17,25,9.00
2015,01,18,17,26,9.00
2015,01,18,17,27,9.10
2015,01,18,17,28,9.10
2015,01,18,17,29,9.10
2015,01,18,17,30,9.10
2015,01,18,17,31,9.10
2015,01,18,17,32,9.10
2015,01,18,17,33,9.10
2015,01,18,17,34,9.10
2015,01,18,17,35,9.10
2015,01,18,17,36,9.10
2015,01,18,17,37,9.10
2015,01,18,17,38,9.10
2015,01,18,17,39,9.10
2015,01,18,17,40,9.10
2015,01,18,17,41,9.10
2015,01,18,17,42,9.10
2015,01,18,17,43,9.10
2015,01,18,17,44,9.10
2015,01,18,17,45,9.10
2015,01,18,17,46,9.10
2015,01,18,17,47,9.10
2015,01,18,17,48,9.10
2015,01,18,17,49,9.10
2015,01,18,17,50,9.10
2015,01,18,17,51,9.10
2015,01,18,17,52,9.10
2015,01,18,17,53,9.10
2015,01,18,17,54,9.10
2015,01,18,17,55,9.10
2015,01,18,17,56,9.10
2015,01,18,17,57,9.10
2015,01,18,17,58,9.10
2015,01,18,17,59,9.10
2015,01,18,18,00,9.10
2015,01,18,18,01,9.10
2015,01,18,18,02,9.10
2015,01,18,18,03,9.10
2015,01,18,18,04,9.10
2015,01,18,18,05,9.10
2015,01,18,18,06,9.10
2015,01,18,18,07,9.10
2015,01,18,18,08,9.10
2015,01,18,18,09,9.10
2015,01,18,18,10,9.10
2015,01,18,18,11,9.10
2015,01,18,18,12,9.00
2015,01,18,18,13,9.00
2015,01,18,18,14,9.00
2015,01,18,18,15,8.90
2015,01,18,18,16,8.90
2015,01,18,18,17,8.90
2015,01,18,18,18,8.80
2015,01,18,18,19,8.80
2015,01,18,18,20,8.80
2015,01,18,18,21,8.80
2015,01,18,18,22,8.80
2015,01,18,18,23,8.70
2015,01,18,18,24,8.70
2015,01,18,18,25,8.70
2015,01,18,18,26,8.70
2015,01,18,18,27,8.70
2015,01,18,18,28,8.70
2015,01,18,18,29,8.70
2015,01,18,18,30,8.70
2015,01,18,18,31,8.70
2015,01,18,18,32,8.70
2015,01,18,18,33,8.70
2015,01,18,18,34,8.70
2015,01,18,18,35,8.70
2015,01,18,18,36,8.70
2015,01,18,18,37,8.70
2015,01,18,18,38,8.70
2015,01,18,18,39,8.70
2015,01,18,18,40,8.60
2015,01,18,18,41,8.60
2015,01,18,18,42,8.70
2015,01,18,18,43,8.70
2015,01,18,18,44,8.70
2015,01,18,18,45,8.70
2015,01,18,18,46,8.70
2015,01,18,18,47,8.70
2015,01,18,18,48,8.70
2015,01,18,18,49,8.70
2015,01,18,18,50,8.70
2015,01,18,18,51,8.70
2015,01,18,18,52,8.70
2015,01,18,18,53,8.70
2015,01,18,18,54,8.70
2015,01,18,18,55,8.70
2015,01,18,18,56,8.80
2015,01,18,18,57,8.80
2015,01,18,18,58,8.80
2015,01,18,18,59,8.80
2015,01,18,19,00,8.80
2015,01,18,19,01,8.80
2015,01,18,19,02,8.80
2015,01,18,19,03,8.80
2015,01,18,19,04,8.80
2015,01,18,19,05,8.80
2015,01,18,19,06,8.80
2015,01,18,19,07,8.80
2015,01,18,19,08,8.80
2015,01,18,19,09,8.80
2015,01,18,19,10,8.80
2015,01,18,19,11,8.80
2015,01,18,19,12,8.80
2015,01,18,19,13,8.80
2015,01,18,19,14,8.90
2015,01,18,19,15,8.90
2015,01,18,19,16,8.80
2015,01,18,19,17,8.80
2015,01,18,19,18,8.80
2015,01,18,19,19,8.70
2015,01,18,19,20,8.70
2015,01,18,19,21,8.60
2015,01,18,19,22,8.60
2015,01,18,19,23,8.50
2015,01,18,19,24,8.50
2015,01,18,19,25,8.40
2015,01,18,19,26,8.40
2015,01,18,19,27,8.30
2015,01,18,19,28,8.30
2015,01,18,19,29,8.30
2015,01,18,19,30,8.30
2015,01,18,19,31,8.20
2015,01,18,19,32,8.20
2015,01,18,19,33,8.20
2015,01,18,19,34,8.20
2015,01,18,19,35,8.10
2015,01,18,19,36,8.10
2015,01,18,19,37,8.10
2015,01,18,19,38,8.10
2015,01,18,19,39,8.10
2015,01,18,19,40,8.10
2015,01,18,19,41,8.10
2015,01,18,19,42,8.10
2015,01,18,19,43,8.10
2015,01,18,19,44,8.10
2015,01,18,19,45,8.00
2015,01,18,19,46,8.00
2015,01,18,19,47,8.00
2015,01,18,19,48,8.00
2015,01,18,19,49,8.00
2015,01,18,19,50,8.00
2015,01,18,19,51,8.00
2015,01,18,19,52,8.00
2015,01,18,19,53,8.10
2015,01,18,19,54,8.10
2015,01,18,19,55,8.10
2015,01,18,19,56,8.10
2015,01,18,19,57,8.20
2015,01,18,19,58,8.20
2015,01,18,19,59,8.20
2015,01,18,20,00,8.20
2015,01,18,20,01,8.20
2015,01,18,20,02,8.20
2015,01,18,20,03,8.20
2015,01,18,20,04,8.20
2015,01,18,20,05,8.20
2015,01,18,20,06,8.20
2015,01,18,20,07,8.20
2015,01,18,20,08,8.20
2015,01,18,20,09,8.20
2015,01,18,20,10,8.20
2015,01,18,20,11,8.20
2015,01,18,20,12,8.20
2015,01,18,20,13,8.20
2015,01,18,20,14,8.20
2015,01,18,20,15,8.20
2015,01,18,20,16,8.20
2015,01,18,20,17,8.20
2015,01,18,20,18,8.20
2015,01,18,20,19,8.20
2015,01,18,20,20,8.20
2015,01,18,20,21,8.20
2015,01,18,20,22,8.20
2015,01,18,20,23,8.20
2015,01,18,20,24,8.20
2015,01,18,20,25,8.20
2015,01,18,20,26,8.20
2015,01,18,20,27,8.20
2015,01,18,20,28,8.20
2015,01,18,20,29,8.20
2015,01,18,20,30,8.20